Date,TemperatureHighF,TemperatureAvgF,TemperatureLowF,DewpointHighF,DewpointAvgF,DewpointLowF,HumidityHigh,HumidityAvg,HumidityLow,PressureMaxIn,PressureMinIn,WindSpeedMaxMPH,WindSpeedAvgMPH,GustSpeedMaxMPH,PrecipitationSumIn
2013-1-1,54.2,46.6,41.1,37.0,34.4,32.0,77,63,48,30.27,30.20,8,1,18,0.00
2013-1-2,60.9,45.2,36.2,40.0,32.5,-99.9,85,67,43,30.25,30.14,3,-22,6,0.00
2013-1-3,59.9,46.5,36.6,44.0,38.4,33.0,89,75,52,30.26,30.16,1,0,3,0.00
2013-1-4,62.6,48.9,39.7,42.0,38.7,36.0,89,70,40,30.29,30.17,3,0,5,0.00
2013-1-5,54.1,47.9,41.2,48.0,43.5,38.0,94,85,73,30.27,30.06,7,1,11,0.18
2013-1-6,52.1,45.3,41.5,44.0,37.8,-99.9,92,82,70,30.19,30.05,8,-32,18,0.01
2013-1-7,61.7,48.1,38.8,47.0,41.7,-99.9,95,82,55,30.27,30.16,2,-10,7,0.00
2013-1-8,64.2,51.5,43.3,49.0,45.3,42.0,94,81,57,30.24,30.12,2,0,4,0.00
2013-1-9,51.9,47.8,43.5,49.0,42.4,36.0,92,82,64,30.15,30.01,4,0,6,0.00
2013-1-10,54.0,45.1,39.6,37.0,31.8,-99.9,82,64,44,30.19,30.08,3,-21,5,0.00
2013-1-11,55.1,46.2,41.0,42.0,35.3,31.0,86,67,48,30.27,30.13,3,0,7,0.00
2013-1-12,54.7,44.9,35.3,37.0,29.7,22.0,86,58,29,30.26,30.14,3,0,6,0.00
2013-1-13,54.0,44.2,34.6,32.0,23.8,17.0,64,46,29,30.28,30.17,3,0,7,0.00
2013-1-14,54.3,44.4,35.8,28.0,19.0,14.0,64,38,22,30.41,30.23,3,0,13,0.00
2013-1-15,58.0,45.1,35.2,35.0,28.0,25.0,78,53,30,30.49,30.39,5,0,11,0.00
2013-1-16,62.1,46.9,35.9,41.0,34.7,29.0,83,64,40,30.43,30.25,3,0,4,0.00
2013-1-17,64.0,49.7,38.6,41.0,37.2,34.0,86,65,34,30.27,30.14,4,0,6,0.00
2013-1-18,66.4,51.2,39.1,43.0,36.5,25.0,87,61,28,30.23,30.12,4,0,8,0.00
2013-1-19,68.3,51.7,38.0,43.0,36.9,33.0,84,60,32,30.25,30.14,3,0,6,0.00
2013-1-20,68.5,50.9,39.0,45.0,37.1,33.0,87,63,30,30.23,30.11,4,0,5,0.00
2013-1-21,66.4,50.7,37.9,42.0,37.6,32.0,87,63,38,30.18,30.07,3,0,5,0.00
2013-1-22,67.9,51.9,40.8,45.0,41.6,36.0,89,70,40,30.11,29.99,1,0,4,0.00
2013-1-23,54.8,52.2,50.4,51.0,47.1,44.0,93,82,68,30.09,29.95,3,0,8,0.02
2013-1-24,59.6,54.2,51.0,51.0,49.8,48.0,91,85,72,30.19,30.06,3,0,12,0.00
2013-1-25,67.9,58.2,52.1,55.0,52.1,50.0,93,81,64,30.19,30.03,4,0,5,0.00
2013-1-26,63.4,53.2,48.0,50.0,45.2,39.0,94,76,45,30.08,29.99,4,0,6,0.00
2013-1-27,59.5,50.6,42.8,41.0,37.7,31.0,79,63,35,30.17,30.07,2,0,6,0.00
2013-1-28,62.1,50.8,41.9,44.0,39.5,36.0,81,66,44,30.29,30.17,3,0,4,0.00
2013-1-29,61.4,50.6,41.4,46.0,41.3,38.0,88,72,45,30.36,30.26,2,0,4,0.00
2013-1-30,69.5,54.1,42.6,48.0,43.7,40.0,91,71,40,30.34,30.25,4,0,5,0.00
2013-1-31,67.6,53.8,42.7,48.0,44.7,40.0,92,73,49,30.29,30.16,3,0,6,0.00
2013-2-1,72.5,55.8,43.6,49.0,45.6,41.0,93,71,41,30.21,30.10,3,0,6,0.00
2013-2-2,60.6,54.4,48.4,49.0,47.6,44.0,91,78,66,30.30,30.22,2,0,3,0.00
2013-2-3,61.7,52.1,44.3,46.0,44.0,41.0,90,75,54,30.26,30.14,3,0,6,0.00
2013-2-4,60.0,50.3,46.9,49.0,46.2,44.0,92,86,68,30.19,30.07,2,0,5,0.00
2013-2-5,57.6,51.4,46.4,48.0,44.8,41.0,88,78,65,30.15,30.08,2,0,6,0.00
2013-2-6,62.9,50.5,40.9,46.0,42.4,38.0,91,75,47,30.20,30.12,2,0,7,0.00
2013-2-7,58.8,49.2,43.4,47.0,41.8,38.0,91,77,50,30.18,30.00,5,1,7,0.07
2013-2-8,57.1,48.1,42.6,42.0,40.3,35.0,93,76,52,30.02,29.95,2,0,5,0.01
2013-2-9,62.1,50.4,40.8,38.0,33.1,26.0,73,54,28,30.09,29.99,4,0,8,0.00
2013-2-10,62.7,49.5,38.1,43.0,36.9,33.0,85,64,37,30.13,30.02,4,0,6,0.00
2013-2-11,68.4,52.6,39.5,46.0,36.7,25.0,87,61,23,30.23,30.07,5,0,10,0.00
2013-2-12,64.1,51.6,41.3,47.0,43.0,39.0,91,75,43,30.36,30.24,1,0,3,0.00
2013-2-13,64.3,51.4,42.9,48.0,44.2,40.0,95,78,47,30.35,30.22,2,0,3,0.00
2013-2-14,72.4,56.1,43.4,49.0,45.0,42.0,94,70,36,30.25,30.14,4,0,6,0.00
2013-2-15,76.2,60.5,49.4,49.0,44.6,41.0,85,59,32,30.26,30.18,3,0,6,0.00
2013-2-16,71.1,57.0,46.9,49.0,46.3,43.0,88,70,44,30.23,30.05,2,0,4,0.00
2013-2-17,65.3,53.7,47.2,47.0,44.9,42.0,91,74,49,30.07,29.97,5,1,8,0.00
2013-2-18,54.1,49.7,47.7,45.0,41.3,37.0,88,73,60,30.05,29.97,6,1,9,0.00
2013-2-19,51.2,46.5,41.8,44.0,38.9,34.0,90,75,56,29.97,29.76,6,1,11,0.07
2013-2-20,61.9,49.8,39.2,42.0,36.7,33.0,79,63,39,30.06,29.86,3,0,6,0.00
2013-2-21,63.7,51.7,40.6,43.0,37.4,32.0,84,61,32,30.17,30.06,2,0,5,0.00
2013-2-22,65.2,51.4,41.2,45.0,41.3,36.0,87,71,35,30.26,30.17,6,0,8,0.00
2013-2-23,62.7,53.2,47.7,47.0,39.4,35.0,90,62,36,30.25,30.15,2,0,5,0.00
2013-2-24,65.8,54.0,46.6,42.0,31.4,24.0,70,45,24,30.26,30.16,5,0,8,0.00
2013-2-25,66.3,53.2,43.5,46.0,42.8,37.0,89,70,44,30.28,30.16,3,0,6,0.00
2013-2-26,70.0,54.5,41.7,44.0,38.3,24.0,86,60,18,30.22,30.13,4,0,7,0.00
2013-2-27,68.8,54.1,42.5,47.0,41.4,35.0,87,65,31,30.37,30.21,2,0,6,0.00
2013-2-28,68.5,56.4,48.5,52.0,49.2,46.0,92,78,55,30.46,30.37,8,0,8,0.00
2013-3-1,75.7,58.6,47.8,54.0,49.2,46.0,95,74,42,30.44,30.23,1,0,4,0.00
2013-3-2,71.5,59.0,51.3,53.0,49.5,47.0,87,72,49,30.24,30.06,2,0,5,0.00
2013-3-3,65.4,54.6,49.3,50.0,47.5,45.0,87,78,54,30.10,30.05,5,1,9,0.00
2013-3-4,59.4,50.4,46.9,46.0,43.9,42.0,88,79,59,30.16,30.07,4,1,7,0.00
2013-3-5,58.6,51.2,44.9,47.0,42.4,40.0,87,73,56,30.08,29.85,14,3,17,0.11
2013-3-6,58.4,52.2,45.5,48.0,42.9,40.0,92,72,53,30.08,29.86,9,2,15,0.28
2013-3-7,60.3,50.1,43.4,46.0,41.6,35.0,90,75,42,30.00,29.86,5,0,7,0.00
2013-3-8,64.3,53.0,46.2,46.0,42.6,38.0,88,69,46,30.05,29.84,3,0,8,0.00
2013-3-9,68.1,54.9,42.2,47.0,42.7,39.0,90,67,35,30.30,30.05,2,0,9,0.00
2013-3-10,71.3,56.6,43.7,49.0,44.0,35.0,89,66,32,30.35,30.25,3,0,6,0.00
2013-3-11,72.6,57.2,44.6,49.0,45.2,40.0,89,68,32,30.26,30.11,3,0,3,0.00
2013-3-12,71.0,56.8,48.9,52.0,49.2,47.0,93,78,51,30.17,30.06,2,0,5,0.00
2013-3-13,76.0,59.6,48.5,55.0,50.8,47.0,95,75,47,30.17,30.05,2,0,4,0.00
2013-3-14,67.8,57.0,49.6,53.0,49.6,47.0,93,77,59,30.17,30.09,3,0,6,0.00
2013-3-15,70.2,57.2,48.5,51.0,48.5,46.0,92,75,45,30.14,30.04,6,0,6,0.00
2013-3-16,69.1,57.4,49.4,52.0,48.3,45.0,93,74,50,30.12,30.03,5,1,9,0.00
2013-3-17,70.3,56.5,46.9,48.0,44.4,40.0,89,67,35,30.15,30.05,3,0,7,0.00
2013-3-18,68.0,55.3,46.0,49.0,45.2,41.0,87,70,48,30.13,30.03,3,0,8,0.00
2013-3-19,69.6,56.5,50.0,48.0,44.6,40.0,84,67,37,30.14,30.06,4,0,6,0.00
2013-3-20,60.9,54.9,51.5,55.0,50.7,47.0,91,86,69,30.14,30.07,7,0,9,0.01
2013-3-21,67.1,53.9,44.1,50.0,40.5,-99.9,89,66,42,30.14,30.01,3,-23,4,0.00
2013-3-22,70.1,57.5,45.9,44.0,38.3,27.0,79,53,20,30.11,30.02,2,0,4,0.00
2013-3-23,70.8,56.4,44.0,44.0,38.0,29.0,77,54,22,30.15,30.04,3,0,4,0.00
2013-3-24,70.7,56.4,46.0,48.0,45.1,41.0,85,68,39,30.10,29.98,2,0,5,0.00
2013-3-25,60.2,52.4,47.7,46.0,44.3,43.0,87,74,57,30.05,29.93,4,0,7,0.00
2013-3-26,65.3,55.7,48.9,48.0,45.2,43.0,83,69,53,30.01,29.94,4,0,7,0.00
2013-3-27,64.1,56.9,50.1,54.0,49.8,45.0,88,78,65,30.02,29.95,3,0,6,0.00
2013-3-28,70.7,59.5,54.6,56.0,53.0,51.0,94,80,55,30.09,30.01,1,0,5,0.02
2013-3-29,78.6,60.7,51.5,56.0,52.0,50.0,95,75,43,30.09,30.01,3,0,7,0.00
2013-3-30,70.6,59.0,52.9,54.0,52.1,50.0,92,79,55,30.07,29.97,1,0,3,0.00
2013-3-31,67.6,59.3,54.1,57.0,52.7,48.0,92,80,53,30.06,29.98,7,1,10,0.03
2013-4-1,68.4,58.8,53.9,56.0,52.2,48.0,95,80,58,30.15,30.04,3,0,6,0.47
2013-4-2,68.3,57.1,50.7,54.0,50.4,48.0,90,79,57,30.19,30.09,5,0,6,0.00
2013-4-3,75.7,59.0,50.9,56.0,51.1,48.0,91,77,45,30.15,29.99,4,0,6,0.00
2013-4-4,64.3,57.3,52.4,57.0,53.2,48.0,94,86,74,30.12,29.99,6,1,12,0.37
2013-4-5,66.6,59.3,54.4,55.0,52.6,51.0,93,79,60,30.19,30.12,3,0,9,0.01
2013-4-6,64.9,57.5,54.3,55.0,52.5,50.0,92,83,69,30.20,30.14,5,0,8,0.00
2013-4-7,65.1,57.4,52.7,54.0,50.6,46.0,92,79,62,30.17,29.86,3,1,10,0.01
2013-4-8,70.2,56.8,48.9,48.0,40.1,25.0,81,56,18,30.02,29.82,5,1,8,0.00
2013-4-9,78.4,64.4,51.9,46.0,39.1,23.0,69,44,13,30.09,30.01,4,0,8,0.00
2013-4-10,85.4,68.6,56.5,53.0,48.1,43.0,80,50,29,30.16,30.03,5,0,7,0.00
2013-4-11,73.0,60.5,51.9,51.0,48.1,46.0,84,66,42,30.07,29.84,6,1,8,0.00
2013-4-12,73.1,58.4,49.7,51.0,47.9,46.0,88,70,45,29.93,29.84,3,1,7,0.00
2013-4-13,69.9,57.8,49.4,49.0,46.2,44.0,85,67,46,29.91,29.82,6,1,10,0.00
2013-4-14,67.6,57.3,47.5,47.0,42.5,32.0,84,61,29,29.94,29.86,8,1,11,0.00
2013-4-15,63.3,54.0,48.1,47.0,40.5,35.0,88,62,41,29.95,29.87,3,1,12,0.00
2013-4-16,67.9,57.2,45.2,45.0,36.5,31.0,67,48,26,30.15,29.96,3,1,9,0.00
2013-4-17,72.4,62.0,54.0,47.0,32.8,21.0,72,36,15,30.25,30.15,3,0,8,0.00
2013-4-18,77.4,62.0,49.2,48.0,43.3,36.0,79,54,23,30.27,30.18,6,0,9,0.00
2013-4-19,75.8,62.7,50.9,52.0,49.0,46.0,84,63,38,30.24,30.06,2,0,7,0.00
2013-4-20,80.4,64.3,52.8,51.0,47.9,44.0,85,59,28,30.11,29.98,3,0,7,0.00
2013-4-21,82.7,66.0,51.8,54.0,47.6,43.0,84,56,25,30.04,29.91,3,0,5,0.00
2013-4-22,88.9,68.7,55.5,52.0,48.9,42.0,79,54,19,29.96,29.84,3,0,7,0.00
2013-4-23,82.5,63.4,53.3,52.0,42.7,26.0,83,56,15,30.40,29.86,8,0,15,0.00
2013-5-9,65.6,59.8,53.4,51.0,49.8,48.0,83,70,60,30.19,30.11,4,1,10,0.00
2013-5-10,66.4,56.1,51.8,54.0,50.5,48.0,90,82,62,30.20,30.13,5,1,11,0.00
2013-5-11,75.8,61.6,52.2,56.0,52.5,49.0,91,74,48,30.17,30.05,3,0,6,0.00
2013-5-12,76.4,63.6,53.5,58.0,53.9,50.0,92,72,52,30.14,30.03,4,0,7,0.00
2013-5-13,69.0,59.7,53.0,56.0,52.4,50.0,90,78,62,30.12,29.96,5,1,8,0.00
2013-5-14,67.2,59.1,53.7,53.0,50.0,46.0,87,72,56,30.02,29.95,9,2,12,0.00
2013-5-15,65.3,57.6,51.6,52.0,48.7,46.0,84,73,58,30.06,30.00,8,2,12,0.00
2013-5-16,68.7,59.4,55.0,56.0,52.0,49.0,88,77,59,30.04,29.97,8,1,11,0.00
2013-5-17,68.1,58.7,52.1,51.0,48.3,45.0,87,70,49,30.09,29.98,3,1,11,0.00
2013-5-18,70.9,61.3,52.3,53.0,50.0,47.0,86,68,46,30.14,30.07,5,1,9,0.00
2013-5-19,81.2,66.8,54.2,54.0,49.8,42.0,86,58,29,30.12,29.97,3,0,8,0.00
2013-5-20,87.8,68.3,54.8,55.0,50.4,44.0,81,58,22,30.00,29.92,3,0,5,0.00
2013-5-21,72.4,61.0,52.6,51.0,47.2,40.0,85,63,44,30.00,29.93,5,1,9,0.00
2013-5-22,67.3,58.7,50.0,44.0,37.3,29.0,67,46,26,30.02,29.91,4,1,8,0.00
2013-5-23,65.8,58.7,50.2,47.0,43.2,40.0,76,58,40,30.00,29.92,6,1,10,0.00
2013-5-24,68.4,57.7,50.1,48.0,45.6,41.0,85,66,41,30.00,29.95,6,1,13,0.00
2013-5-25,63.8,56.3,50.1,50.0,47.3,45.0,85,73,54,30.06,29.98,8,2,10,0.00
2013-5-26,68.3,59.6,53.2,54.0,51.4,49.0,89,75,59,30.14,30.06,4,1,11,0.00
2013-5-27,64.8,59.1,53.7,56.0,53.0,49.0,92,80,69,30.14,30.00,3,0,8,0.01
2013-5-28,71.2,62.1,56.6,58.0,54.4,52.0,92,77,58,30.00,29.93,5,1,9,0.00
2013-5-29,71.0,59.6,56.5,55.0,45.6,-99.9,83,67,52,29.97,29.90,3,-42,9,0.00
2013-5-30,71.1,61.9,52.2,51.0,49.2,48.0,88,65,44,29.99,29.94,8,2,11,0.00
2013-5-31,83.0,65.9,53.3,53.0,50.1,47.0,84,60,30,30.02,29.91,5,1,9,0.00
2013-6-1,84.7,68.8,55.8,55.0,52.1,49.0,82,58,34,29.94,29.76,4,0,6,0.00
2013-6-2,72.4,61.4,54.6,53.0,51.2,50.0,86,71,49,29.78,29.69,5,0,10,0.00
2013-6-3,70.1,61.5,55.1,55.0,51.9,50.0,84,72,54,29.86,29.73,3,0,7,0.00
2013-6-4,67.4,59.7,55.6,55.0,51.8,50.0,84,76,63,29.98,29.86,3,0,5,0.00
2013-6-5,67.9,59.1,54.9,52.0,50.8,49.0,83,74,57,30.00,29.94,3,0,7,0.00
2013-6-6,70.2,59.9,53.5,54.0,51.5,50.0,86,75,56,29.96,29.87,2,0,5,0.00
2013-6-7,79.3,64.7,54.5,58.0,54.3,51.0,89,71,48,29.91,29.72,2,0,5,0.00
2013-6-8,73.0,63.6,57.3,57.0,54.7,52.0,87,73,57,29.80,29.72,3,0,7,0.00
2013-6-9,70.3,61.8,57.3,57.0,55.0,54.0,90,79,62,29.88,29.80,3,0,8,0.00
2013-6-10,70.7,61.9,56.9,55.0,52.9,51.0,84,73,55,29.95,29.84,13,2,14,0.00
2013-6-11,72.9,62.7,56.8,55.0,52.8,51.0,84,71,52,29.99,29.90,5,0,6,0.00
2013-6-12,73.4,63.0,53.7,53.0,50.7,49.0,85,66,45,30.00,29.91,6,1,10,0.00
2013-6-13,75.1,63.9,52.6,53.0,49.8,47.0,85,63,39,30.09,29.99,5,1,9,0.00
2013-6-14,83.5,66.9,54.8,57.0,51.1,47.0,82,60,28,29.99,29.83,5,0,7,0.00
2013-6-15,63.7,57.3,53.0,52.0,50.2,49.0,86,77,64,30.02,29.85,5,1,10,0.00
2013-6-16,72.0,61.8,53.0,55.0,51.6,49.0,87,70,52,30.09,30.01,5,1,9,0.00
2013-6-17,74.2,62.4,53.6,57.0,53.3,50.0,90,73,55,30.10,30.02,7,1,9,0.00
2013-6-18,69.2,61.8,55.9,54.0,52.1,50.0,86,71,56,30.04,29.98,4,1,8,0.00
2013-6-19,73.5,64.9,55.6,51.0,49.1,47.0,78,58,42,30.05,29.99,2,0,7,0.00
2013-6-20,74.2,64.0,54.4,52.0,50.0,48.0,84,62,44,30.01,29.94,7,1,10,0.00
2013-6-21,76.7,62.9,53.9,54.0,51.4,49.0,87,68,41,29.98,29.92,5,1,10,0.00
2013-6-22,81.4,66.3,55.9,55.0,52.8,51.0,87,65,37,29.93,29.84,5,1,8,0.00
2013-6-23,65.1,60.4,56.0,60.0,56.5,53.0,90,87,82,29.89,29.82,4,1,11,0.00
2013-6-24,64.2,60.7,58.0,60.0,56.7,54.0,91,86,81,29.90,29.80,3,0,5,0.00
2013-6-25,71.6,65.6,61.5,65.0,61.7,59.0,93,87,77,29.98,29.88,7,1,11,0.18
2013-6-26,81.3,70.8,62.3,65.0,61.6,59.0,94,74,54,30.04,29.97,4,0,7,0.00
2013-6-27,84.5,72.2,62.2,63.0,60.7,58.0,91,69,47,30.07,29.99,3,0,5,0.00
2013-6-28,87.7,73.5,61.7,63.0,59.6,57.0,85,64,42,30.02,29.89,1,0,4,0.00
2013-6-29,88.5,74.4,62.7,62.0,58.9,57.0,82,61,36,29.91,29.79,1,0,4,0.00
2013-6-30,82.4,70.0,59.9,60.0,57.4,55.0,85,66,45,29.84,29.76,3,1,5,0.00
2013-7-1,85.0,70.5,58.9,63.0,58.1,55.0,88,67,44,29.84,29.80,2,0,5,0.00
2013-7-2,81.8,68.7,61.5,61.0,57.9,56.0,84,70,49,29.92,29.82,2,0,4,0.00
2013-7-3,86.9,70.0,59.6,62.0,58.6,56.0,90,69,41,29.91,29.76,1,0,4,0.00
2013-7-4,81.6,71.1,63.2,61.0,57.9,52.0,83,65,47,29.77,29.68,3,0,6,0.00
2013-7-5,64.5,59.4,55.6,54.0,52.5,51.0,86,78,67,29.81,29.72,8,2,12,0.00
2013-7-6,72.5,61.5,56.5,55.0,53.1,52.0,85,75,55,29.81,29.75,6,1,8,0.00
2013-7-7,72.4,63.2,57.8,56.0,54.0,53.0,84,73,56,29.86,29.79,2,0,3,0.00
2013-7-8,72.0,61.9,57.7,56.0,54.2,52.0,87,76,57,29.98,29.86,2,0,3,0.00
2013-7-9,79.1,64.8,56.2,59.0,55.5,53.0,91,74,48,30.04,29.92,2,0,3,0.00
2013-7-10,73.1,62.6,56.2,57.0,53.9,52.0,86,74,55,29.99,29.91,3,0,5,0.00
2013-7-11,67.9,58.9,54.2,54.0,52.2,51.0,88,79,61,29.96,29.90,2,0,8,0.00
2013-7-12,71.6,62.0,56.2,56.0,53.1,51.0,84,73,55,29.95,29.88,4,0,4,0.00
2013-7-13,74.2,64.2,55.5,56.0,53.6,51.0,87,70,51,29.97,29.90,2,0,4,0.00
2013-7-14,70.0,60.6,55.9,55.0,52.9,51.0,86,76,59,30.02,29.91,3,0,6,0.00
2013-7-15,68.0,58.8,53.9,55.0,52.3,50.0,89,79,62,29.94,29.86,3,0,7,0.00
2013-7-16,68.0,61.1,56.8,57.0,53.7,51.0,85,77,64,30.03,29.87,4,0,9,0.00
2013-7-17,70.9,62.2,57.1,57.0,54.6,53.0,86,77,61,30.11,30.03,3,0,8,0.00
2013-7-18,73.2,62.0,55.2,57.0,54.3,52.0,90,77,57,30.08,29.96,4,0,6,0.00
2013-7-19,75.2,62.7,55.7,58.0,54.1,52.0,88,75,53,29.97,29.84,4,0,7,0.00
2013-7-20,74.0,60.8,55.0,57.0,53.4,52.0,89,78,54,29.88,29.75,5,0,6,0.00
2013-7-21,70.1,61.6,55.8,56.0,53.8,52.0,87,76,61,29.89,29.78,2,0,4,0.00
2013-7-22,71.6,62.5,57.6,59.0,56.5,53.0,89,81,64,29.96,29.89,2,0,4,0.00
2013-7-23,75.1,65.0,58.9,59.0,56.6,55.0,87,75,58,30.00,29.95,1,0,3,0.00
2013-7-24,77.6,66.7,57.8,59.0,56.6,54.0,90,72,52,29.99,29.90,3,0,5,0.00
2013-7-25,74.0,62.9,56.0,57.0,54.1,52.0,88,74,52,30.04,29.94,2,0,5,0.00
2013-7-26,72.9,62.2,56.2,58.0,54.8,53.0,88,78,60,30.11,30.02,2,0,5,0.00
2013-7-27,69.5,61.4,56.7,57.0,55.0,53.0,89,80,64,30.04,29.88,2,0,6,0.00
2013-7-28,68.0,60.7,56.8,56.0,54.2,52.0,89,80,63,29.89,29.84,3,0,8,0.00
2013-7-29,72.1,61.7,56.7,56.0,53.7,53.0,87,76,56,30.02,29.85,2,0,7,0.00
2013-7-30,70.0,60.6,57.0,56.0,50.5,-99.9,85,74,61,30.10,30.01,1,-22,6,0.00
2013-7-31,68.9,60.9,55.5,55.0,53.5,52.0,87,77,61,30.10,30.02,11,1,11,0.00
2013-8-1,69.8,59.8,56.3,55.0,53.2,52.0,86,79,58,30.09,29.96,7,1,9,0.00
2013-8-2,73.2,61.6,55.1,56.0,53.6,52.0,90,76,53,30.00,29.91,5,1,10,0.00
2013-8-3,71.8,61.7,55.7,56.0,53.9,52.0,86,76,58,29.99,29.92,3,0,7,0.00
2013-8-4,68.0,59.9,55.1,54.0,53.2,52.0,89,79,61,30.02,29.97,2,0,7,0.00
2013-8-5,68.8,59.7,55.4,55.0,53.2,51.0,88,79,62,30.04,29.96,4,0,8,0.00
2013-8-6,69.0,60.3,55.6,56.0,53.6,52.0,89,79,61,30.05,29.98,4,0,8,0.00
2013-8-7,69.9,62.4,57.6,57.0,55.3,52.0,91,78,62,30.11,30.04,3,0,8,0.00
2013-8-8,72.8,62.4,56.8,57.0,55.4,52.0,90,78,57,30.04,29.95,3,0,7,0.00
2013-8-9,69.3,60.0,56.0,58.0,52.9,-99.9,91,80,64,30.01,29.93,6,-10,10,0.00
2013-8-10,72.3,62.6,58.2,58.0,55.9,54.0,88,79,59,30.06,30.00,4,0,7,0.00
2013-8-11,69.4,60.8,56.6,57.0,55.2,54.0,91,82,64,30.04,29.95,5,0,6,0.00
2013-8-12,73.7,63.4,56.7,59.0,55.6,53.0,90,77,58,30.00,29.94,3,0,6,0.00
2013-8-13,82.2,66.8,58.0,59.0,55.9,54.0,87,70,39,29.99,29.91,3,0,6,0.00
2013-8-14,75.5,64.4,57.0,61.0,56.7,53.0,88,77,52,29.99,29.91,6,1,11,0.00
2013-8-15,79.6,68.3,61.8,65.0,61.6,59.0,92,80,61,29.97,29.91,6,1,10,0.00
2013-8-16,80.5,66.8,59.7,63.0,59.6,56.0,94,79,51,29.98,29.94,5,1,9,0.00
2013-8-17,73.5,64.8,59.5,61.0,57.7,56.0,88,78,63,30.00,29.87,6,1,8,0.00
2013-8-18,82.5,69.1,60.2,63.0,59.4,57.0,89,73,49,29.89,29.76,3,0,5,0.00
2013-8-19,75.8,66.5,60.0,61.0,58.6,57.0,89,77,58,29.89,29.78,2,0,5,0.00
2013-8-20,73.3,65.1,60.0,60.0,57.4,55.0,90,77,60,29.89,29.83,2,0,6,0.00
2013-8-21,72.0,63.9,59.6,57.0,55.6,54.0,85,75,58,29.95,29.86,1,0,5,0.00
2013-8-22,72.9,63.6,59.1,57.0,54.9,54.0,85,74,56,29.98,29.89,2,0,10,0.00
2013-8-23,69.1,61.6,58.0,57.0,55.0,53.0,86,79,65,29.94,29.82,4,1,8,0.00
2013-8-24,74.6,64.7,57.5,60.0,57.0,54.0,90,77,58,29.90,29.85,7,1,10,0.00
2013-8-25,80.1,68.1,62.8,64.0,60.8,58.0,92,78,58,29.94,29.88,4,0,6,0.00
2013-8-26,75.9,65.8,60.9,60.0,57.4,56.0,89,75,55,30.01,29.90,4,0,9,0.00
2013-8-27,77.9,66.2,58.2,61.0,58.0,55.0,90,76,51,29.91,29.82,4,0,6,0.00
2013-8-28,79.1,66.6,59.8,64.0,60.1,57.0,91,80,59,29.94,29.86,4,1,7,0.00
2013-8-29,80.0,68.7,62.2,64.0,61.1,59.0,90,78,57,30.06,29.95,4,0,5,0.00
2013-8-30,87.1,71.7,62.3,64.0,61.5,59.0,91,73,43,30.04,29.89,4,1,7,0.00
2013-8-31,75.8,65.1,58.9,60.0,58.1,56.0,91,79,57,29.99,29.89,6,1,7,0.00
2013-9-1,78.8,67.5,59.8,62.0,58.6,56.0,88,74,49,29.95,29.88,3,1,7,0.00
2013-9-2,80.2,69.3,63.3,63.0,61.7,60.0,90,78,57,29.96,29.87,2,0,6,0.00
2013-9-3,78.8,67.9,60.9,61.0,59.0,57.0,90,75,48,30.00,29.93,5,1,8,0.00
2013-9-4,79.1,68.1,61.2,61.0,59.2,57.0,88,74,52,30.03,29.93,4,1,7,0.00
2013-9-5,79.0,68.3,60.7,59.0,58.3,57.0,88,72,49,30.01,29.93,6,1,8,0.00
2013-9-6,90.5,73.4,58.3,62.0,56.7,50.0,87,60,25,29.98,29.80,4,1,5,0.00
2013-9-7,90.5,74.2,61.9,60.0,55.8,51.0,83,55,30,29.86,29.79,2,0,3,0.00
2013-9-8,81.5,66.7,58.4,61.0,57.7,56.0,91,75,48,29.87,29.75,2,0,3,0.00
2013-9-9,81.9,67.0,56.8,61.0,57.8,54.0,91,74,47,29.82,29.71,3,0,3,0.00
2013-9-10,78.5,66.9,60.4,61.0,58.9,57.0,90,76,54,29.89,29.74,3,1,5,0.00
2013-9-11,74.7,66.9,62.8,60.0,58.3,57.0,83,74,59,29.99,29.89,4,1,9,0.00
2013-9-12,75.5,65.3,60.4,61.0,59.3,57.0,90,81,61,29.98,29.89,6,1,8,0.00
2013-9-13,62.2,59.3,58.0,57.0,55.7,55.0,89,88,80,29.91,29.89,4,1,7,0.00